sat.trackr.live / text

‹ back to catalog

GSAT0207 (GALILEO 15)

NORAD 41859 · 2016-069A

PAYLOAD ACTIVE UNKNOWN

§ Identity

Operator
Country
ESA
Launch date
2016-11-17
Launch site
FRGUI
Launch vehicle
Mass (kg)
RCS (m²)
18.36

Purposes: earth_obs, nav

External: N2YO · Heavens-Above · Gunter

§ Orbital elements

Epoch: 2026-05-24T06:46:01.933248Z

Period
844.70 min
Inclination
55.4848°
Eccentricity
0.0005716
Mean motion
1.70473755 rev/d
Perigee alt
23,205.3 km
Apogee alt
23,239.1 km
Semi-major
29,600.3 km
B*
0.0000e+0
RAAN
101.7471°
Arg perigee
323.6698°
Mean anomaly
36.2517°
Rev number
5,899

§ Raw data

GSAT0207 (GALILEO 15)1 41859U 16069A   26144.28196682  .00000016  00000+0  00000+0 0  99932 41859  55.4848 101.7471 0005716 323.6698  36.2517  1.70473755 58994

JSON: /api/v1/satellites/41859 · /tle

For live sub-satellite position, see the globe view (requires WebGL).

§ Visibility from observer

Set your observer location to see the next 7 days of passes ≥ 10°. The values pass through the URL so the page stays shareable.

No JS? Fill the form by hand. The geolocation button needs JavaScript.